Погода в Тошвиске

Россия / Ненецкий автономный округ     67°07′15″N   52°18′04″E
темп.,
°C
ветер,
м/с
пор.,
м/с
влажн.,
%
обл.,
%
осадки,
мм/ч
давл.,
гПа
погр.,
м
29 ноября, пн
пн2900:00−12всв51287100 0.0 1009283
03:00−12св61189100 0.0 1007256
06:00−13ссв61190100 0.0 1006213
09:00−14ссв61190100 0.0 1006206
12:00−15с5993100 0.0 1008157
15:00−17ссз4695100 0.0 101090
18:00−19сз339935 0.0 101232
21:00−16з459669 0.0 101470
30 ноября, вт
вт3000:00−14з469684 0.1 101589
03:00−15зсз339876 0.1 101522
06:00−18св0110080 0.0 10169
09:00−18юв34100100 0.0 101636
12:00−18вюв47100100 0.0 101575
15:00−16в61396100 0.0 1011159
18:00−15в9218999 0.0 1007330
21:00−13в122676100 0.0 1003465
1 декабря, ср
ср100:00−11в122670100 0.0 999586
03:00−10в132374100 0.0 995678
06:00−11в132093100 1.1 992582
09:00−12в121894100 3.0 992497
12:00−12в101593100 0.9 993430
15:00−12в8139291 1.1 993319
18:00−13всв7119479 0.2 994256
21:00−14всв6109477 0.3 995197
2 декабря, чт
чт200:00−14всв6109588 0.1 994188
03:00−13всв7109595 0.3 994213
06:00−13всв71294100 0.2 993222
09:00−13св71195100 0.5 993298
12:00−13св71294100 0.4 993333
15:00−14ссв71295100 1.1 993361
18:00−16ссв81391100 0.5 994415
21:00−16св81689100 0.5 995518
3 декабря, пт
пт300:00−16св8168999 0.0 997502
03:00−17ссв8158732 0.0 999400
06:00−18св713865 0.0 1001276
09:00−21ссв45965 0.0 100446
12:00−23ссв34985 0.0 100738
15:00−25ссв33985 0.0 101015
18:00−26сз2210042 0.0 10139
21:00−24зсз339973 0.0 101520